Regional Weather Roundup
Issued by NWS

Home | Current Version | Previous Version | Graphics & Text | Print | Product List | Glossary Off
Versions: 1 2 3 4 5 6 7 8 9 10 11 12 13 14 15 16 17 18 19 20 21 22 23 24 25 26 27 28 29 30 31 32 33 34 35 36 37 38 39 40 41 42 43 44 45 46 47 48 49 50

000
ASUS43 KTOP 281708
RWRKS

WEATHER ROUNDUP FOR KANSAS
NATIONAL WEATHER SERVICE GOODLAND KS
1200 PM CDT SAT MAY 28 2016

NOTE:  "FAIR" INDICATES FEW OR NO CLOUDS BELOW 12,000 FEET WITH NO
SIGNIFICANT WEATHER AND/OR OBSTRUCTIONS TO VISIBILITY.

KSZ001>006-013>018-027>032-041>047-281800-
NORTHWEST KANSAS

CITY           SKY/WX    TMP DP  RH WIND       PRES   REMARKS
GOODLAND       SUNNY     66  48  52 W7        30.00R
HAYS           MOSUNNY   66  52  59 NW7       29.94S
HILL CITY      SUNNY     71  54  54 VRB7      29.95R
RUSSELL        SUNNY     68  56  65 NW10      29.92R
$$

KSZ061>065-074>080-084>089-281800-
SOUTHWEST KANSAS

CITY           SKY/WX    TMP DP  RH WIND       PRES   REMARKS
DODGE CITY     SUNNY     71  50  47 NW12G22   29.98R
ELKHART          N/A     70  47  44 NW2         N/A
GARDEN CITY    SUNNY     70  47  43 NW7       29.99R
GREAT BEND     SUNNY     66  54  63 NW9       29.94S
LIBERAL        SUNNY     72  46  40 N5        30.02S
PRATT          SUNNY     69  52  53 NW8       29.95S
$$

KSZ066>073-081>083-090>101-281800-
SOUTHEAST KANSAS

CITY           SKY/WX    TMP DP  RH WIND       PRES   REMARKS
CHANUTE        MOSUNNY   72  62  71 SW8       29.92R
COFFEYVILLE    MOSUNNY   75  62  64 SW9       29.93R
HUTCHINSON     SUNNY     73  58  59 W14       29.92S
MEDICINE LODGE   N/A     77  53  43 W12       29.94R
NEWTON         MOSUNNY   70  55  60 W14       29.95R
PARSONS        SUNNY     74  63  68 SW10      29.93S
WICHITA INTL   MOSUNNY   74  59  59 W12       29.92R
WICHITA JABRA  SUNNY     72  61  68 W12       29.92R
WICHITA MCCONL SUNNY     72  59  64 W10       29.92R
WINFIELD       SUNNY     74  62  66 W7        29.94R
$$

KSZ007>012-019>026-033>040-048>060-102>105-281800-
NORTHEAST KANSAS

CITY           SKY/WX    TMP DP  RH WIND       PRES   REMARKS
CONCORDIA      PTSUNNY   70  57  63 W9G18     29.89S
EMPORIA        MOSUNNY   70  58  65 NW10      29.91R
LAWRENCE       PTSUNNY   71  61  70 W10       29.87R
MANHATTAN      MOSUNNY   71  58  63 W8        29.88R
MARYSVILLE     PTSUNNY   66  61  82 W8        29.87R
OLATHE IND     MOSUNNY   71  60  68 W15G23    29.89R
OLATHE EXE     PTSUNNY   69  59  70 W14G22    29.88R
SALINA         MOSUNNY   71  58  63 W15       29.91R
TOPEKA BILLARD MOSUNNY   69  57  65 W15G23    29.87R
TOPEKA FORBES  PTSUNNY   73  60  63 W15G24    29.88R
$$




USA.gov is the U.S. government's official web portal to all federal, state and local government web resources and services.